Chamberlain, SD

4:12 PM CST on January 17, 2018 (GMT -0600)
Chamberlain

Weather History for K9V9 - October, 2011

Change the Weather History Date:

Sunday, October 30, 2011

  Actual Average Record
Temperature  
Mean Temperature 45 °F -  
Max Temperature 55 °F 50 °F 78 °F (2007)
Min Temperature 33 °F 29 °F 19 °F (1996)
Degree Days  
Heating Degree Days 20    
Moisture  
Dew Point 27 °F    
Average Humidity 54    
Maximum Humidity 77    
Minimum Humidity 26    
Precipitation  
Precipitation 0.00 in - - ()
Sea Level Pressure  
Sea Level Pressure 30.03 in    
Wind  
Wind Speed 14 mph (NW)    
Max Wind Speed 22 mph    
Max Gust Speed 30 mph    
Averages and records for this station are not official NWS values.
T = Trace of Precipitation, MM = Missing Value Source: NWS Daily Summary

Daily Weather History Graph

Daily Weather History Graph

Search for Another Location

Airport or City:

Trip Planner

Search our weather history database for the weather conditions in past years. The results will help you decide how hot, cold, wet, or windy it might be!

Date:

Astronomy

Oct. 30, 2011 Rise Set
Actual Time 8:10 AM CDT 6:30 PM CDT
Civil Twilight 7:40 AM CDT 7:00 PM CDT
Nautical Twilight 7:06 AM CDT 7:34 PM CDT
Astronomical Twilight 6:33 AM CDT 8:07 PM CDT
Moon 12:36 PM CDT (10/30) 9:56 PM CDT (10/30)
Length of Visible Light 11h 19m
Length of Day
10h 20m
Waxing Crescent, 20% of the Moon is Illuminated
Oct 30
Waxing Crescent
Nov 2
First Quarter
Nov 10
Full
Nov 18
Last Quarter
Nov 25
New

Hourly Weather History & Observations

Time (CDT) Temp. Windchill Dew Point Humidity Pressure Visibility Wind Dir Wind Speed Gust Speed Precip Events Conditions
12:52 AM 46.0 °F 39.0 °F 35.1 °F 66% 29.96 in - North 17.3 mph 24.2 mph N/A   Unknown
1:52 AM 44.1 °F 37.7 °F 34.0 °F 68% 29.97 in - NNW 12.7 mph - N/A   Unknown
2:52 AM 39.9 °F 32.9 °F 33.1 °F 77% 29.99 in - NW 11.5 mph - N/A   Unknown
3:52 AM 41.0 °F 32.8 °F 32.0 °F 70% 30.00 in - NW 16.1 mph 23.0 mph N/A   Unknown
4:52 AM 39.9 °F 31.8 °F 30.9 °F 70% 30.00 in - NW 15.0 mph - N/A   Unknown
5:52 AM 39.0 °F 30.6 °F 30.0 °F 70% 30.02 in - NW 15.0 mph - N/A   Unknown
6:52 AM 37.9 °F 29.6 °F 30.0 °F 73% 30.03 in - NW 13.8 mph - N/A   Unknown
7:52 AM 36.0 °F 28.5 °F 28.0 °F 73% 30.04 in - WNW 10.4 mph - N/A   Unknown
8:52 AM 37.0 °F 29.3 °F 28.0 °F 70% 30.06 in - WNW 11.5 mph - N/A   Unknown
9:52 AM 42.1 °F 35.2 °F 28.0 °F 58% 30.05 in - NW 12.7 mph - N/A   Unknown
10:52 AM 46.0 °F 39.0 °F 28.0 °F 50% 30.04 in - NW 17.3 mph 21.9 mph N/A   Unknown
11:52 AM 50.0 °F - 27.0 °F 41% 30.04 in - NNW 20.7 mph 25.3 mph N/A   Unknown
12:52 PM 52.0 °F - 27.0 °F 38% 30.03 in - NNW 21.9 mph 29.9 mph N/A   Unknown
1:52 PM 54.0 °F - 26.1 °F 34% 30.02 in - NNW 20.7 mph 29.9 mph N/A   Unknown
2:52 PM 55.0 °F - 21.9 °F 28% 30.02 in - North 19.6 mph 26.5 mph N/A   Unknown
3:52 PM 55.0 °F - 21.9 °F 28% 30.01 in - NNW 21.9 mph 27.6 mph N/A   Unknown
4:52 PM 54.0 °F - 19.9 °F 26% 30.03 in - North 15.0 mph - N/A   Unknown
5:52 PM 51.1 °F - 21.9 °F 32% 30.04 in - North 8.1 mph - N/A   Unknown
6:52 PM 46.0 °F 42.5 °F 23.0 °F 40% 30.06 in - North 6.9 mph - N/A   Unknown
7:52 PM 42.1 °F 37.7 °F 21.9 °F 45% 30.09 in - NNW 6.9 mph - N/A   Unknown
8:52 PM 39.0 °F 36.8 °F 23.0 °F 53% 30.08 in - NNW 3.5 mph - N/A   Unknown
9:52 PM 37.0 °F - 24.1 °F 59% 30.07 in - Calm Calm - N/A   Unknown
10:52 PM 35.1 °F 32.2 °F 24.1 °F 64% 30.08 in - WSW 3.5 mph - N/A   Unknown
11:52 PM 33.1 °F 27.7 °F 25.0 °F 72% 30.06 in - WSW 5.8 mph - N/A   Unknown